GW5212 Weather Reports


time (UTC)temp
C
wind
direction
speed
KPH
gust
KPH
rain 1hr
cm
rain 24hr
cm
rain mn
cm
humidity
%
barometer
mb
20260505195519 20 275 0.0 0.0 0.00 0.89 0.00 99 1016.7
20260505194517 20 261 0.0 0.0 0.00 0.89 0.00 99 1016.7
20260505193517 20 213 0.0 0.0 0.00 0.89 0.00 99 1016.6
20260505192518 20 234 0.0 0.0 0.00 0.89 0.00 99 1016.5
20260505191518 20 245 0.0 0.0 0.00 0.89 0.00 99 1016.6
20260505190518 20 253 0.0 0.0 0.00 0.89 0.00 99 1016.7
20260505185545 20 166 0.0 0.0 0.00 0.89 0.00 99 1016.6
20260505184522 20 226 0.0 0.0 0.00 0.89 0.00 99 1016.7
20260505183525 20 224 0.0 0.0 0.00 0.89 0.00 99 1016.6
20260505182521 20 270 0.0 0.0 0.00 0.89 0.00 99 1016.9
20260505181524 20 293 0.0 0.0 0.00 0.89 0.00 99 1017.0
20260505180520 20 239 0.0 0.0 0.00 0.89 0.00 99 1017.0
20260505175525 20 206 0.0 0.0 0.00 0.89 0.00 99 1017.1
20260505174520 20 237 0.0 0.0 0.00 0.89 0.00 99 1017.2
20260505173540 20 153 0.0 0.0 0.00 0.89 0.00 99 1017.4
20260505172524 20 232 0.0 3.2 0.00 0.89 0.00 99 1017.5
20260505171519 20 194 0.0 0.0 0.00 0.89 0.00 99 1017.6
20260505170523 20 232 0.0 0.0 0.00 0.89 0.00 99 1017.7
20260505165620 20 258 0.0 0.0 0.00 0.89 0.00 99 1017.8
20260505164518 20 223 0.0 0.0 0.00 0.89 0.00 99 1017.9
20260505163519 20 220 0.0 0.0 0.00 0.89 0.00 99 1018.0
20260505162542 20 148 0.0 0.0 0.00 0.89 0.00 99 1018.0
20260505161522 20 236 0.0 0.0 0.00 0.89 0.00 99 1018.1
20260505160520 20 278 0.0 0.0 0.00 0.89 0.00 99 1018.1
20260505152520 20 189 0.0 0.0 0.00 0.89 0.89 99 1018.5
20260505151524 20 275 0.0 0.0 0.00 0.89 0.89 99 1018.8
20260505150518 20 287 0.0 0.0 0.00 0.89 0.89 99 1018.9
20260505140521 20 277 0.0 0.0 0.00 0.89 0.89 99 1018.9
20260505124520 20 229 0.0 0.0 0.13 0.86 0.86 99 1018.4
20260505124129 20 179 0.0 0.0 0.15 0.86 0.86 99 1018.7